Millsboro, DE-Long Neck Sussex DE USA current weather conditions

sailwx.info

Wind from 325 at 2 knots gusting 5

Air temperature 4.1° C
Dewpoint 0.2° C

Last reported at 2019-Nov-21 07:55 UTC.
Time now 2019-Nov-21 08:24 UTC

Location: N 38°37' W 075°07'.
View on Google Maps.

See reports from other nearby stations

  
Tides and Currents Weather Stations Pressure Air Temp Water Temp Dewpoint Dewpoint Depression Visibility Wind Speed Wind Dir Waves Ship Positions
date/time (UTC)wind fromknots sea level pressurealtimeterstation pressurevisibilityair tempwater tempwave heightnotes
2019-Nov-21 08:05 332 2 gusting 6 4.1
2019-Nov-21 08:00 336 1 gusting 4 4.1
2019-Nov-21 07:55 325 2 gusting 5 4.1
2019-Nov-21 07:50 330 1 gusting 4 4.1
2019-Nov-21 07:45 330 1 gusting 5 4.1
2019-Nov-21 07:40 331 2 gusting 5 4.2
2019-Nov-21 07:35 325 1 gusting 4 4.1
2019-Nov-21 07:30 330 1 gusting 5 4.2
2019-Nov-21 07:25 327 2 gusting 6 4.1
2019-Nov-21 07:20 334 1 gusting 6 4.2
2019-Nov-21 07:15 309 2 gusting 5 4.2
2019-Nov-21 07:10 318 1 gusting 6 4.2
2019-Nov-21 07:05 318 1 gusting 6 4.1
2019-Nov-21 07:00 320 1 gusting 4 4.0
2019-Nov-21 06:55 320 1 gusting 4 4.0
2019-Nov-21 06:50 328 1 gusting 4 4.0
2019-Nov-21 06:45 327 1 gusting 4 4.0
2019-Nov-21 06:40 325 1 gusting 4 4.0
2019-Nov-21 06:35 326 1 gusting 4 3.9
2019-Nov-21 06:30 325 1 gusting 3 3.9
2019-Nov-21 06:25 324 1 gusting 4 4.0
2019-Nov-21 06:20 329 0 gusting 3 4.0
2019-Nov-21 06:15 327 1 gusting 4 4.0
2019-Nov-21 06:10 326 1 gusting 4 4.0
2019-Nov-21 06:05 325 1 gusting 5 4.0
2019-Nov-21 06:00 330 1 gusting 4 4.0
2019-Nov-21 05:55 331 1 gusting 3 4.0
2019-Nov-21 05:50 336 1 gusting 2 4.0
2019-Nov-21 05:45 340 0 gusting 2 4.0
2019-Nov-21 05:40 332 0 gusting 2 4.0
2019-Nov-21 05:35 330 0 gusting 3 4.1
2019-Nov-21 05:30 331 1 gusting 3 4.2
2019-Nov-21 05:25 328 1 gusting 3 4.2
2019-Nov-21 05:20 329 0 gusting 2 4.1
2019-Nov-21 05:15 338 0 gusting 4 4.3
2019-Nov-21 05:10 332 0 gusting 3 4.5
2019-Nov-21 05:05 332 0 gusting 3 4.6
2019-Nov-21 05:00 323 1 gusting 4 4.6
2019-Nov-21 04:55 325 2 gusting 6 4.5
2019-Nov-21 04:50 323 1 gusting 5 4.4
2019-Nov-21 04:45 318 1 gusting 4 4.2
2019-Nov-21 04:40 330 1 gusting 3 4.2
2019-Nov-21 04:35 325 1 gusting 2 4.2
2019-Nov-21 04:30 323 0 gusting 2 4.2
2019-Nov-21 04:25 317 0 gusting 1 4.2
2019-Nov-21 04:20 323 0 gusting 2 4.3
2019-Nov-21 04:15 328 0 gusting 2 4.3
2019-Nov-21 04:10 326 0 gusting 3 4.4
2019-Nov-21 04:05 319 0 gusting 1 4.4
2019-Nov-21 04:00 321 0 gusting 2 4.4
2019-Nov-21 03:55 331 0 gusting 0 4.6
2019-Nov-21 03:50 333 0 gusting 2 4.8
2019-Nov-21 03:45 327 0 gusting 3 4.9
2019-Nov-21 03:40 313 0 gusting 1 4.9
2019-Nov-21 03:35 320 0 gusting 1 5.0
2019-Nov-21 03:30 320 0 gusting 2 5.0
2019-Nov-21 03:25 312 0 gusting 1 5.1
2019-Nov-21 03:20 315 0 gusting 2 5.2
2019-Nov-21 03:15 309 0 gusting 1 5.2
2019-Nov-21 03:10 308 0 gusting 1 5.3
2019-Nov-21 03:05 312 0 gusting 1 5.4
2019-Nov-21 03:00 322 0 gusting 2 5.4
2019-Nov-21 02:55 313 0 gusting 2 5.4
2019-Nov-21 02:50 333 0 gusting 0 5.5
2019-Nov-21 02:45 327 0 gusting 2 5.6
2019-Nov-21 02:40 329 0 gusting 2 5.8
2019-Nov-21 02:35 325 0 gusting 2 5.9
2019-Nov-21 02:30 322 1 gusting 3 5.9
2019-Nov-21 02:25 343 0 gusting 1 6.1
2019-Nov-21 02:20 327 0 gusting 2 6.2
2019-Nov-21 02:15 331 0 gusting 3 6.3
2019-Nov-21 02:10 333 0 gusting 2 6.5
2019-Nov-21 02:05 328 1 gusting 3 6.5
2019-Nov-21 02:00 332 1 gusting 4 6.6
2019-Nov-21 01:55 319 1 gusting 3 6.7
2019-Nov-21 01:50 327 1 gusting 3 6.8
2019-Nov-21 01:45 323 1 gusting 3 6.7
2019-Nov-21 01:40 326 1 gusting 3 6.7
2019-Nov-21 01:35 322 0 gusting 2 6.7
2019-Nov-21 01:30 329 1 gusting 2 6.8
2019-Nov-21 01:25 330 1 gusting 2 6.9
2019-Nov-21 01:20 327 1 gusting 4 6.7
2019-Nov-21 01:15 331 0 gusting 3 6.8
2019-Nov-21 01:10 331 0 gusting 2 6.8
2019-Nov-21 01:05 307 0 gusting 3 7.0
2019-Nov-21 01:00 316 1 gusting 4 7.0
2019-Nov-21 00:55 322 0 gusting 2 7.1
2019-Nov-21 00:50 312 1 gusting 2 7.2
2019-Nov-21 00:45 328 0 gusting 2 7.2
2019-Nov-21 00:40 331 0 gusting 2 7.3
2019-Nov-21 00:35 330 0 gusting 3 7.4
2019-Nov-21 00:30 330 1 gusting 3 7.4
2019-Nov-21 00:25 328 1 gusting 3 7.6
2019-Nov-21 00:20 324 1 gusting 3 7.6
2019-Nov-21 00:15 330 0 gusting 2 7.7
2019-Nov-21 00:10 325 1 gusting 3 7.8
2019-Nov-21 00:05 320 1 gusting 3 7.8
2019-Nov-21 00:00 324 0 gusting 2 7.9
2019-Nov-20 23:55 325 0 gusting 2 8.2
2019-Nov-20 23:50 317 0 gusting 2 8.4
2019-Nov-20 23:45 327 1 gusting 3 8.5
2019-Nov-20 23:40 332 1 gusting 3 8.6
2019-Nov-20 23:35 322 1 gusting 4 8.7
2019-Nov-20 23:30 321 1 gusting 4 8.8
2019-Nov-20 23:25 324 1 gusting 5 8.9
2019-Nov-20 23:20 334 2 gusting 6 8.8
2019-Nov-20 23:15 338 2 gusting 5 8.8
2019-Nov-20 23:10 340 2 gusting 5 8.7
2019-Nov-20 23:05 340 2 gusting 7 8.7
2019-Nov-20 23:00 334 2 gusting 5 8.8
2019-Nov-20 22:55 341 1 gusting 4 9.0
2019-Nov-20 22:50 333 2 gusting 4 9.1
2019-Nov-20 22:45 332 2 gusting 5 9.3
2019-Nov-20 22:40 336 3 gusting 7 9.3
2019-Nov-20 22:35 337 2 gusting 5 9.3
2019-Nov-20 22:30 332 3 gusting 8 9.2
2019-Nov-20 22:25 330 3 gusting 7 9.0
2019-Nov-20 22:20 334 3 gusting 9 8.9
2019-Nov-20 22:15 337 3 gusting 9 9.0
2019-Nov-20 22:10 330 2 gusting 7 9.0
2019-Nov-20 22:05 341 2 gusting 9 8.8
2019-Nov-20 22:00 344 2 gusting 6 8.8
2019-Nov-20 21:55 340 3 gusting 7 8.9
2019-Nov-20 21:50 338 3 gusting 9 8.9
2019-Nov-20 21:45 341 2 gusting 9 9.0
2019-Nov-20 21:40 337 2 gusting 7 9.1
2019-Nov-20 21:35 337 4 gusting 10 9.1
2019-Nov-20 21:30 335 2 gusting 7 9.1
2019-Nov-20 21:25 336 1 gusting 5 9.3
2019-Nov-20 21:20 334 3 gusting 7 9.6
2019-Nov-20 21:15 334 4 gusting 10 9.7
2019-Nov-20 21:10 330 3 gusting 8 9.7
2019-Nov-20 21:05 333 4 gusting 8 9.7
2019-Nov-20 21:00 342 3 gusting 7 9.5
2019-Nov-20 20:55 360 3 gusting 10 9.2
2019-Nov-20 20:50 356 3 gusting 7 9.1
2019-Nov-20 20:45 010 3 gusting 7 9.3
2019-Nov-20 20:40 008 4 gusting 7 9.6
2019-Nov-20 20:35 001 3 gusting 8 10.2
2019-Nov-20 20:30 001 3 gusting 7 10.3
2019-Nov-20 20:25 357 2 gusting 7 10.2
2019-Nov-20 20:20 008 2 gusting 6 10.6
2019-Nov-20 20:15 345 3 gusting 7 10.7
2019-Nov-20 20:10 357 3 gusting 7 10.5
2019-Nov-20 20:05 351 2 gusting 6 10.7
2019-Nov-20 20:00 351 3 gusting 6 11.0
2019-Nov-20 19:55 345 3 gusting 8 11.0
2019-Nov-20 19:50 348 3 gusting 7 11.2
2019-Nov-20 19:45 345 4 gusting 9 11.1
2019-Nov-20 19:40 352 3 gusting 7 10.9
2019-Nov-20 19:35 360 3 gusting 9 10.9
2019-Nov-20 19:30 353 3 gusting 9 11.3
2019-Nov-20 19:25 346 2 gusting 6 11.0
2019-Nov-20 19:20 345 3 gusting 8 10.4
2019-Nov-20 19:15 336 4 gusting 10 9.9
2019-Nov-20 19:10 343 4 gusting 8 10.1
2019-Nov-20 19:05 341 4 gusting 9 10.3
2019-Nov-20 19:00 350 4 gusting 9 10.4
2019-Nov-20 18:55 350 5 gusting 10 10.1
2019-Nov-20 18:50 346 5 gusting 11 10.4
2019-Nov-20 18:45 349 5 gusting 9 11.0
2019-Nov-20 18:40 346 4 gusting 9 10.9
2019-Nov-20 18:35 349 5 gusting 11 10.8
2019-Nov-20 18:30 346 5 gusting 10 10.7
2019-Nov-20 18:25 339 4 gusting 11 10.2
2019-Nov-20 18:20 345 4 gusting 9 9.4
2019-Nov-20 18:15 340 5 gusting 13 9.5
2019-Nov-20 18:10 349 4 gusting 10 10.3
2019-Nov-20 18:05 340 4 gusting 8 10.7
2019-Nov-20 18:00 332 3 gusting 8 10.6
2019-Nov-20 17:55 341 4 gusting 9 10.8
2019-Nov-20 17:50 328 3 gusting 9 10.8
2019-Nov-20 17:45 327 4 gusting 10 10.3
2019-Nov-20 17:40 327 4 gusting 9 10.7
2019-Nov-20 17:35 338 5 gusting 13 10.8
2019-Nov-20 17:30 340 3 gusting 12 10.6
2019-Nov-20 17:25 346 3 gusting 8 10.6
2019-Nov-20 17:20 350 4 gusting 7 10.7
2019-Nov-20 17:15 327 3 gusting 7 10.6
2019-Nov-20 17:10 326 4 gusting 10 10.8
2019-Nov-20 17:05 332 4 gusting 10 10.8
2019-Nov-20 17:00 329 3 gusting 9 10.6
2019-Nov-20 16:55 337 4 gusting 8 9.8
2019-Nov-20 16:50 343 4 gusting 9 10.0
2019-Nov-20 16:45 345 4 gusting 10 10.1
2019-Nov-20 16:40 349 4 gusting 9 10.4
2019-Nov-20 16:35 347 4 gusting 8 10.3
2019-Nov-20 16:30 330 4 gusting 9 10.0
2019-Nov-20 16:25 346 4 gusting 9 9.7
2019-Nov-20 16:20 334 5 gusting 10 9.6
2019-Nov-20 16:15 340 5 gusting 11 9.6
2019-Nov-20 16:10 343 3 gusting 8 9.5
2019-Nov-20 16:05 332 3 gusting 7 9.1
2019-Nov-20 16:00 330 3 gusting 9 9.1
2019-Nov-20 15:55 347 3 gusting 8 8.9
2019-Nov-20 15:50 346 4 gusting 10 8.7
2019-Nov-20 15:45 344 3 gusting 8 8.8
2019-Nov-20 15:40 337 4 gusting 9 8.9
2019-Nov-20 15:35 338 3 gusting 7 8.8
2019-Nov-20 15:30 352 4 gusting 8 8.8
2019-Nov-20 15:25 346 3 gusting 7 8.5
2019-Nov-20 15:20 348 3 gusting 8 8.5
2019-Nov-20 15:15 334 3 gusting 8 8.4
2019-Nov-20 15:10 337 3 gusting 6 8.5
2019-Nov-20 15:05 341 3 gusting 8 8.6
2019-Nov-20 15:00 338 3 gusting 9 8.8
2019-Nov-20 14:55 342 2 gusting 6 8.9
2019-Nov-20 14:50 344 2 gusting 5 8.7
2019-Nov-20 14:45 342 1 gusting 4 8.1
2019-Nov-20 14:40 334 2 gusting 5 7.9
2019-Nov-20 14:35 339 2 gusting 6 7.9
2019-Nov-20 14:30 344 3 gusting 6 7.9
2019-Nov-20 14:25 344 2 gusting 4 7.9
2019-Nov-20 14:20 345 2 gusting 5 7.8
2019-Nov-20 14:15 339 1 gusting 4 7.7
2019-Nov-20 14:10 337 2 gusting 5 7.5
2019-Nov-20 14:05 348 1 gusting 5 7.4
2019-Nov-20 14:00 333 1 gusting 4 7.2
2019-Nov-20 13:55 338 2 gusting 5 7.0
2019-Nov-20 13:50 342 1 gusting 3 6.9
2019-Nov-20 13:45 346 1 gusting 3 6.7
2019-Nov-20 13:40 339 1 gusting 5 6.5
2019-Nov-20 13:35 336 0 gusting 2 6.5
2019-Nov-20 13:30 332 0 gusting 2 6.5
2019-Nov-20 13:25 338 0 gusting 2 6.4
2019-Nov-20 13:20 333 0 gusting 1 6.4
2019-Nov-20 13:15 324 0 gusting 2 6.4
2019-Nov-20 13:10 325 0 gusting 2 6.4
2019-Nov-20 13:05 332 0 gusting 1 6.4
2019-Nov-20 13:00 325 0 gusting 1 6.3
2019-Nov-20 12:55 347 0 gusting 0 6.2
2019-Nov-20 12:50 347 0 gusting 0 6.2
2019-Nov-20 12:45 347 0 gusting 0 6.1
2019-Nov-20 12:40 346 0 gusting 0 6.1
2019-Nov-20 12:35 345 0 gusting 0 6.1
2019-Nov-20 12:30 345 0 gusting 0 6.1
2019-Nov-20 12:25 6.1
2019-Nov-20 12:20 346 0 gusting 0 6.2
2019-Nov-20 12:15 347 0 gusting 0 6.3
2019-Nov-20 12:10 351 0 gusting 1 6.4
2019-Nov-20 12:05 352 0 gusting 3 6.4
2019-Nov-20 12:00 009 1 gusting 3 6.4
2019-Nov-20 11:55 017 1 gusting 2 6.4
2019-Nov-20 11:50 013 1 gusting 5 6.3
2019-Nov-20 11:45 014 0 gusting 2 6.3
2019-Nov-20 11:40 010 1 gusting 2 6.2
2019-Nov-20 11:35 007 0 gusting 3 6.2
2019-Nov-20 11:30 015 1 gusting 2 6.1
2019-Nov-20 11:25 012 1 gusting 3 6.0
2019-Nov-20 11:20 011 1 gusting 3 5.9
2019-Nov-20 11:15 016 1 gusting 3 5.6
2019-Nov-20 11:10 020 1 gusting 3 5.4
2019-Nov-20 11:05 020 0 gusting 2 5.2
2019-Nov-20 11:00 007 0 gusting 1 5.2
2019-Nov-20 10:55 354 0 gusting 0 5.1
2019-Nov-20 10:50 358 0 gusting 0 5.1
2019-Nov-20 10:45 5.2
2019-Nov-20 10:40 5.3
2019-Nov-20 10:35 5.3
2019-Nov-20 10:30 001 0 gusting 0 5.4
2019-Nov-20 10:25 001 0 gusting 0 5.4
2019-Nov-20 10:20 001 0 gusting 0 5.4
2019-Nov-20 10:15 002 0 gusting 0 5.4
2019-Nov-20 10:10 356 0 gusting 1 5.4
2019-Nov-20 10:05 354 0 gusting 1 5.4
2019-Nov-20 10:00 5.3
2019-Nov-20 09:55 5.4
2019-Nov-20 09:50 5.4
2019-Nov-20 09:45 5.5
2019-Nov-20 09:40 5.5
2019-Nov-20 09:35 5.5
2019-Nov-20 09:30 5.5
2019-Nov-20 09:25 355 0 gusting 1 5.5
2019-Nov-20 09:20 352 0 gusting 1 5.5
2019-Nov-20 09:15 346 0 gusting 1 5.5
2019-Nov-20 09:10 351 0 gusting 1 5.5
2019-Nov-20 09:05 352 0 gusting 1 5.5
2019-Nov-20 09:00 360 0 gusting 1 5.4
2019-Nov-20 08:55 355 0 gusting 1 5.4
2019-Nov-20 08:50 356 0 gusting 1 5.4
2019-Nov-20 08:45 002 0 gusting 1 5.4
2019-Nov-20 08:40 001 0 gusting 2 5.3
2019-Nov-20 08:35 359 0 gusting 1 5.3
2019-Nov-20 08:30 359 0 gusting 1 5.3
2019-Nov-20 08:25 349 0 gusting 1 5.3
2019-Nov-20 08:20 354 0 gusting 1 5.3
2019-Nov-20 08:15 358 0 gusting 0 5.2
2019-Nov-20 08:10 001 0 gusting 0 5.3
2019-Nov-20 08:05 007 0 gusting 0 5.3
2019-Nov-20 08:00 005 0 gusting 0 5.3
2019-Nov-20 07:55 005 0 gusting 0 5.3
2019-Nov-20 07:50 5.3
2019-Nov-20 07:45 006 0 gusting 0 5.3
2019-Nov-20 07:40 007 0 gusting 0 5.4
2019-Nov-20 07:35 006 0 gusting 0 5.5
2019-Nov-20 07:30 338 0 gusting 1 5.5
2019-Nov-20 07:25 341 0 gusting 1 5.5
2019-Nov-20 07:20 347 0 gusting 1 5.5
2019-Nov-20 07:15 349 0 gusting 0 5.5
2019-Nov-20 07:10 351 0 gusting 1 5.5
2019-Nov-20 07:05 358 0 gusting 0 5.4
2019-Nov-20 07:00 001 0 gusting 0 5.5
2019-Nov-20 06:55 003 0 gusting 0 5.5
2019-Nov-20 06:50 349 0 gusting 1 5.5
2019-Nov-20 06:45 346 0 gusting 1 5.4
2019-Nov-20 06:40 355 0 gusting 1 5.2
2019-Nov-20 06:35 351 0 gusting 1 5.1
2019-Nov-20 06:30 349 0 gusting 0 5.0
2019-Nov-20 06:25 349 0 gusting 0 4.9
2019-Nov-20 06:20 5.1
2019-Nov-20 06:15 5.1
2019-Nov-20 06:10 5.2
2019-Nov-20 06:05 349 0 gusting 0 5.2
2019-Nov-20 06:00 5.2
2019-Nov-20 05:55 5.4
2019-Nov-20 05:50 5.4
2019-Nov-20 05:45 5.4
2019-Nov-20 05:40 5.4
2019-Nov-20 05:35 5.4
2019-Nov-20 05:30 5.5
2019-Nov-20 05:25 5.6
2019-Nov-20 05:20 5.6
2019-Nov-20 05:15 5.6
2019-Nov-20 05:10 5.6
2019-Nov-20 05:05 347 0 gusting 0 5.6
2019-Nov-20 05:00 337 0 gusting 0 5.8
2019-Nov-20 04:55 329 0 gusting 0 5.7
2019-Nov-20 04:50 351 0 gusting 0 5.6
2019-Nov-20 04:45 338 0 gusting 0 5.7
2019-Nov-20 04:40 330 0 gusting 0 5.7
2019-Nov-20 04:35 5.8
2019-Nov-20 04:30 329 0 gusting 0 5.7
2019-Nov-20 04:25 5.5
2019-Nov-20 04:20 5.6
2019-Nov-20 04:15 5.9
2019-Nov-20 04:10 6.0
2019-Nov-20 04:05 5.9
2019-Nov-20 04:00 6.0
2019-Nov-20 03:55 6.3
2019-Nov-20 03:50 285 0 gusting 0 6.3
2019-Nov-20 03:45 6.4
2019-Nov-20 03:40 296 0 gusting 0 6.5
2019-Nov-20 03:35 293 0 gusting 1 6.5
2019-Nov-20 03:30 297 0 gusting 1 6.4
2019-Nov-20 03:25 320 0 gusting 0 6.4
2019-Nov-20 03:20 6.4
2019-Nov-20 03:15 274 0 gusting 1 6.1
2019-Nov-20 03:10 5.9
2019-Nov-20 03:05 5.7
2019-Nov-20 03:00 5.7
2019-Nov-20 02:55 004 0 gusting 0 5.8
2019-Nov-20 02:50 5.7
2019-Nov-20 02:45 004 0 gusting 0 5.6
2019-Nov-20 02:40 004 0 gusting 0 5.7
2019-Nov-20 02:35 004 0 gusting 0 5.8
2019-Nov-20 02:30 004 0 gusting 0 5.9
2019-Nov-20 02:25 004 0 gusting 0 5.9
2019-Nov-20 02:20 004 0 gusting 0 5.9
2019-Nov-20 02:15 353 0 gusting 1 5.9
2019-Nov-20 02:10 344 0 gusting 0 5.6
2019-Nov-20 02:05 336 0 gusting 0 5.9
2019-Nov-20 02:00 6.1
2019-Nov-20 01:55 6.2
2019-Nov-20 01:50 6.3
2019-Nov-20 01:45 6.3
2019-Nov-20 01:40 6.3
2019-Nov-20 01:35 6.3
2019-Nov-20 01:30 6.5
2019-Nov-20 01:25 6.6
2019-Nov-20 01:20 330 0 gusting 0 6.6
2019-Nov-20 01:15 330 0 gusting 0 6.6
2019-Nov-20 01:10 6.4
2019-Nov-20 01:05 6.3
2019-Nov-20 01:00 6.3
2019-Nov-20 00:55 6.1
2019-Nov-20 00:50 6.1
2019-Nov-20 00:45 6.1
2019-Nov-20 00:40 6.2
2019-Nov-20 00:35 6.1
2019-Nov-20 00:30 6.1
2019-Nov-20 00:25 6.0
2019-Nov-20 00:20 6.0
2019-Nov-20 00:15 6.0
2019-Nov-20 00:10 6.3
2019-Nov-20 00:05 6.6
2019-Nov-20 00:00 6.8
2019-Nov-19 23:55 339 0 gusting 0 6.7
2019-Nov-19 23:50 331 0 gusting 0 6.6
2019-Nov-19 23:45 177 0 gusting 0 6.7
2019-Nov-19 23:40 162 0 gusting 0 6.9
2019-Nov-19 23:35 158 0 gusting 0 6.7
2019-Nov-19 23:30 156 0 gusting 0 6.6
2019-Nov-19 23:25 6.3
2019-Nov-19 23:20 6.2
2019-Nov-19 23:15 6.2
2019-Nov-19 23:10 6.4
2019-Nov-19 23:05 6.3
2019-Nov-19 23:00 6.2
2019-Nov-19 22:55 6.1
2019-Nov-19 22:50 6.0
2019-Nov-19 22:45 6.1
2019-Nov-19 22:40 6.4
2019-Nov-19 22:35 6.4
2019-Nov-19 22:30 6.5
2019-Nov-19 22:25 6.6
2019-Nov-19 22:20 6.6
2019-Nov-19 22:15 6.8
2019-Nov-19 22:10 6.9
2019-Nov-19 22:05 7.0
2019-Nov-19 22:00 7.1
2019-Nov-19 21:55 7.1
2019-Nov-19 21:50 7.1
2019-Nov-19 21:45 7.2
2019-Nov-19 21:40 7.3
2019-Nov-19 21:35 7.6
2019-Nov-19 21:30 7.7
2019-Nov-19 21:25 8.0
2019-Nov-19 21:20 8.2
2019-Nov-19 21:15 8.4
2019-Nov-19 21:10 8.7
2019-Nov-19 21:05 9.0
2019-Nov-19 21:00 9.3
2019-Nov-19 20:55 9.4
2019-Nov-19 20:50 9.5
2019-Nov-19 20:45 9.5
2019-Nov-19 20:40 9.6
2019-Nov-19 20:35 9.7
2019-Nov-19 20:30 9.8
2019-Nov-19 20:25 9.8
2019-Nov-19 20:20 136 0 gusting 1 9.9
2019-Nov-19 20:15 146 0 gusting 0 10.0
2019-Nov-19 20:10 224 0 gusting 1 10.2
2019-Nov-19 20:05 292 0 gusting 0 10.2
2019-Nov-19 20:00 296 0 gusting 1 10.2
2019-Nov-19 19:55 302 0 gusting 2 10.3
2019-Nov-19 19:50 304 0 gusting 2 10.4
2019-Nov-19 19:45 322 0 gusting 3 10.3
2019-Nov-19 19:40 304 1 gusting 2 10.3
2019-Nov-19 19:35 270 0 gusting 2 10.3
2019-Nov-19 19:30 325 0 gusting 2 10.3
2019-Nov-19 19:25 309 0 gusting 2 10.4
2019-Nov-19 19:20 10.4
2019-Nov-19 19:15 285 0 gusting 1 10.4
2019-Nov-19 19:10 034 0 gusting 0 10.7
2019-Nov-19 19:05 039 0 gusting 0 10.7
2019-Nov-19 19:00 047 0 gusting 0 10.5
2019-Nov-19 18:55 037 0 gusting 0 10.3
2019-Nov-19 18:50 278 0 gusting 1 10.2
2019-Nov-19 18:45 338 0 gusting 0 10.2
2019-Nov-19 18:40 296 0 gusting 1 10.2
2019-Nov-19 18:35 317 0 gusting 1 10.3
2019-Nov-19 18:30 009 0 gusting 2 10.2
2019-Nov-19 18:25 344 1 gusting 3 10.3
2019-Nov-19 18:20 005 1 gusting 3 10.5
2019-Nov-19 18:15 354 1 gusting 3 10.6
2019-Nov-19 18:10 336 0 gusting 2 10.3
2019-Nov-19 18:05 336 2 gusting 5 10.2
2019-Nov-19 18:00 331 2 gusting 5 10.3
2019-Nov-19 17:55 342 2 gusting 5 10.6
2019-Nov-19 17:50 346 2 gusting 6 10.7
2019-Nov-19 17:45 338 2 gusting 6 10.8
2019-Nov-19 17:40 300 1 gusting 6 10.8
2019-Nov-19 17:35 311 1 gusting 4 10.7
2019-Nov-19 17:30 328 1 gusting 4 10.4
2019-Nov-19 17:25 339 1 gusting 6 9.9
2019-Nov-19 17:20 313 1 gusting 4 10.1
2019-Nov-19 17:15 311 0 gusting 3 10.0
2019-Nov-19 17:10 337 0 gusting 0 9.8
2019-Nov-19 17:05 345 0 gusting 0 9.6
2019-Nov-19 17:00 314 0 gusting 1 9.6
2019-Nov-19 16:55 230 0 gusting 0 9.5
2019-Nov-19 16:50 277 0 gusting 2 9.3
2019-Nov-19 16:45 352 0 gusting 0 9.3
2019-Nov-19 16:40 346 0 gusting 1 9.0
2019-Nov-19 16:35 305 0 gusting 3 8.7
2019-Nov-19 16:30 302 1 gusting 4 8.7
2019-Nov-19 16:25 317 1 gusting 4 8.8
2019-Nov-19 16:20 327 0 gusting 5 8.9
2019-Nov-19 16:15 329 0 gusting 2 8.8
2019-Nov-19 16:10 140 0 gusting 1 8.7
2019-Nov-19 16:05 309 1 gusting 5 8.2
2019-Nov-19 16:00 310 2 gusting 5 8.2
2019-Nov-19 15:55 335 0 gusting 3 8.4
2019-Nov-19 15:50 348 0 gusting 2 8.2
2019-Nov-19 15:45 038 0 gusting 0 8.1
2019-Nov-19 15:40 031 0 gusting 0 8.0
2019-Nov-19 15:35 007 0 gusting 1 7.7
2019-Nov-19 15:30 339 0 gusting 1 7.4
2019-Nov-19 15:25 334 0 gusting 1 7.3
2019-Nov-19 15:20 303 0 gusting 1 7.1
2019-Nov-19 15:15 314 0 gusting 2 7.0
2019-Nov-19 15:10 310 1 gusting 3 6.9
2019-Nov-19 15:05 288 0 gusting 2 6.8
2019-Nov-19 15:00 316 1 gusting 3 6.8
2019-Nov-19 14:55 323 1 gusting 4 6.8
2019-Nov-19 14:50 321 1 gusting 3 6.8
2019-Nov-19 14:45 318 0 gusting 2 6.7
2019-Nov-19 14:40 280 1 gusting 5 6.7
2019-Nov-19 14:35 280 0 gusting 2 6.7
2019-Nov-19 14:30 335 1 gusting 3 6.7
2019-Nov-19 14:25 329 1 gusting 4 6.6
2019-Nov-19 14:20 336 2 gusting 5 6.7
2019-Nov-19 14:15 329 1 gusting 3 6.7
2019-Nov-19 14:10 290 1 gusting 3 6.6
2019-Nov-19 14:05 283 1 gusting 3 6.6
2019-Nov-19 14:00 313 1 gusting 5 6.7
2019-Nov-19 13:55 307 1 gusting 3 6.8
2019-Nov-19 13:50 314 1 gusting 2 6.8
2019-Nov-19 13:45 327 1 gusting 2 6.7
2019-Nov-19 13:40 314 1 gusting 3 6.7
2019-Nov-19 13:35 316 1 gusting 5 6.7
2019-Nov-19 13:30 322 1 gusting 4 6.7
2019-Nov-19 13:25 291 1 gusting 4 6.6
2019-Nov-19 13:20 293 1 gusting 4 6.7
2019-Nov-19 13:15 300 1 gusting 5 6.7
2019-Nov-19 13:10 303 1 gusting 5 6.6
2019-Nov-19 13:05 312 1 gusting 3 6.5
2019-Nov-19 13:00 316 1 gusting 4 6.4
2019-Nov-19 12:55 302 1 gusting 5 6.4
2019-Nov-19 12:50 318 1 gusting 5 6.3
2019-Nov-19 12:45 307 1 gusting 3 6.3
2019-Nov-19 12:40 305 0 gusting 2 6.3
2019-Nov-19 12:35 312 0 gusting 3 6.3
2019-Nov-19 12:30 334 0 gusting 1 6.2
2019-Nov-19 12:25 359 0 gusting 3 6.2
2019-Nov-19 12:20 013 0 gusting 0 6.0
2019-Nov-19 12:15 329 0 gusting 2 6.0
2019-Nov-19 12:10 321 0 gusting 2 6.0
2019-Nov-19 12:05 322 0 gusting 2 5.9
2019-Nov-19 12:00 324 0 gusting 1 5.9
2019-Nov-19 11:55 314 0 gusting 1 5.9
2019-Nov-19 11:50 296 0 gusting 2 5.9
2019-Nov-19 11:45 321 0 gusting 4 5.9
2019-Nov-19 11:40 336 0 gusting 3 5.8
2019-Nov-19 11:35 359 0 gusting 1 5.7
2019-Nov-19 11:30 335 0 gusting 1 5.5
2019-Nov-19 11:25 5.4
2019-Nov-19 11:20 018 0 gusting 0 5.5
2019-Nov-19 11:15 020 0 gusting 0 5.0
2019-Nov-19 11:10 021 0 gusting 0 4.8
2019-Nov-19 11:05 026 0 gusting 1 5.0
2019-Nov-19 11:00 5.1
2019-Nov-19 10:55 011 0 gusting 0 5.3
2019-Nov-19 10:50 010 0 gusting 0 5.6
2019-Nov-19 10:45 007 0 gusting 0 5.7
2019-Nov-19 10:40 350 0 gusting 1 5.8
2019-Nov-19 10:35 328 0 gusting 2 5.9
2019-Nov-19 10:30 314 1 gusting 4 5.9
2019-Nov-19 10:25 302 1 gusting 3 5.7
2019-Nov-19 10:20 329 0 gusting 3 5.1
2019-Nov-19 10:15 338 0 gusting 0 5.0
2019-Nov-19 10:10 5.5
2019-Nov-19 10:05 306 0 gusting 1 5.8
2019-Nov-19 10:00 345 0 gusting 3 5.6
2019-Nov-19 09:55 342 0 gusting 1 5.5
2019-Nov-19 09:50 342 0 gusting 0 5.6
2019-Nov-19 09:45 336 0 gusting 1 5.9
2019-Nov-19 09:40 330 0 gusting 1 6.0
2019-Nov-19 09:35 327 0 gusting 1 6.2
2019-Nov-19 09:30 335 0 gusting 3 6.3
2019-Nov-19 09:25 308 0 gusting 2 6.3
2019-Nov-19 09:20 321 0 gusting 1 6.3
2019-Nov-19 09:15 324 0 gusting 3 6.3
2019-Nov-19 09:10 340 0 gusting 2 6.3
2019-Nov-19 09:05 359 0 gusting 0 6.3
2019-Nov-19 09:00 358 0 gusting 0 6.3
2019-Nov-19 08:55 347 0 gusting 1 6.3
2019-Nov-19 08:50 342 0 gusting 1 6.2
2019-Nov-19 08:45 008 0 gusting 0 6.2
2019-Nov-19 08:40 6.2
2019-Nov-19 08:35 008 0 gusting 0 6.2
2019-Nov-19 08:30 008 0 gusting 0 6.1
2019-Nov-19 08:25 330 0 gusting 2 6.1
2019-Nov-19 08:20 334 0 gusting 1 6.1
2019-Nov-19 08:15 337 0 gusting 3 6.1
2019-Nov-19 08:10 353 0 gusting 1 6.1
2019-Nov-19 08:05 002 0 gusting 1 6.1
2019-Nov-19 08:00 004 0 gusting 0 6.1